Volver al catálogo

COSMOS 2251 DEB

LostLEO
NORAD 40807·DEBRIS·🇷🇺 Russia

Lanzado Jun 16, 1993 desde Plesetsk Cosmodrome

Loading…

Próximos Pases (próximas 24 horas)

TLE

ObsoletoSource: Space-Track

Época: Feb 17, 2023, 02:27 UTC

1 40807U 93036BWL 23048.10276879  .00007810  00000-0  28064-2 0  9995
2 40807  74.0226 201.7967 0100981 168.8157 207.5275 14.31125484623315

Sigue COSMOS 2251 DEB en tiempo real con AllMySat

Download on the App Store